Terminal Aerodrome Forecast
Issued by NWS St Louis, MO

Home | Current Version | Previous Version | Text Only | Print | Product List | Glossary On
Versions: 1 2 3 4 5 6 7 8 9 10 11 12 13 14 15 16 17 18 19 20 21 22 23 24 25 26
000
FTUS43 KLSX 191100
TAFCOU
TAF
KCOU 191134Z 1912/2012 09004KT 5SM BR OVC005
     FM191800 12005KT 5SM BR OVC007
     FM192200 11004KT P6SM OVC010
     FM200400 15004KT 5SM BR OVC006=

USA.gov is the U.S. government's official web portal to all federal, state and local government web resources and services.